FW1692 Warrington UK current weather conditions

sailwx.info

Wind from 357 at 1 knots gusting 3

Air temperature 4.4° C
Dewpoint 3.4° C

Last reported at 2019-Nov-17 23:01 UTC.
Time now 2019-Nov-17 23:29 UTC

Location: N 53°25' W 002°33'.
View on Google Maps.

See reports from other nearby stations

  
Tides and Currents Weather Stations Pressure Air Temp Water Temp Dewpoint Dewpoint Depression Visibility Wind Speed Wind Dir Waves Ship Positions
date/time (UTC)wind fromknots sea level pressurealtimeterstation pressurevisibilityair tempwater tempwave heightnotes
2019-Nov-17 23:06 350 1 gusting 3 4.4
2019-Nov-17 23:01 357 1 gusting 3 4.4
2019-Nov-17 22:56 354 0 gusting 3 4.4
2019-Nov-17 22:51 316 1 gusting 3 4.4
2019-Nov-17 22:46 312 1 gusting 3 4.4
2019-Nov-17 22:41 312 0 gusting 2 4.4
2019-Nov-17 22:36 312 1 gusting 2 4.4
2019-Nov-17 22:31 312 5.0
2019-Nov-17 22:26 312 5.0
2019-Nov-17 22:21 312 0 gusting 3 5.0
2019-Nov-17 22:16 319 0 gusting 3 5.0
2019-Nov-17 22:11 321 1 gusting 4 5.0
2019-Nov-17 22:06 321 2 gusting 4 5.0
2019-Nov-17 22:01 306 1 gusting 3 5.6
2019-Nov-17 21:56 330 1 gusting 3 5.6
2019-Nov-17 21:51 312 1 gusting 2 5.6
2019-Nov-17 21:46 336 1 gusting 2 5.6
2019-Nov-17 21:41 336 0 gusting 3 5.6
2019-Nov-17 21:36 331 1 gusting 4 5.6
2019-Nov-17 21:31 340 1 gusting 3 5.6
2019-Nov-17 21:26 302 1 gusting 4 5.6
2019-Nov-17 21:21 324 1 gusting 4 6.1
2019-Nov-17 21:16 333 1 gusting 3 6.1
2019-Nov-17 21:11 344 1 gusting 2 6.1
2019-Nov-17 21:06 021 1 gusting 2 6.1
2019-Nov-17 21:01 028 6.1
2019-Nov-17 20:56 028 0 gusting 3 6.1
2019-Nov-17 20:51 035 1 gusting 3 6.7
2019-Nov-17 20:46 355 0 gusting 1 6.7
2019-Nov-17 20:41 020 0 gusting 4 6.7
2019-Nov-17 20:36 345 0 gusting 4 6.7
2019-Nov-17 20:31 6.7
2019-Nov-17 20:26 341 1 gusting 4 7.2
2019-Nov-17 20:21 341 2 gusting 4 7.2
2019-Nov-17 20:16 355 1 gusting 4 7.2
2019-Nov-17 20:11 334 0 gusting 3 7.2
2019-Nov-17 20:06 345 0 gusting 3 7.2
2019-Nov-17 20:01 334 1 gusting 4 7.2
2019-Nov-17 19:56 321 2 gusting 4 7.2
2019-Nov-17 19:51 6.7
2019-Nov-17 19:46 341 2 gusting 4 7.2
2019-Nov-17 19:41 357 1 gusting 4 6.7
2019-Nov-17 19:36 331 1 gusting 4 6.7
2019-Nov-17 19:31 337 0 gusting 3 6.7
2019-Nov-17 19:26 336 1 gusting 4 6.7
2019-Nov-17 19:21 338 2 gusting 3 6.7
2019-Nov-17 19:16 333 0 gusting 2 6.7
2019-Nov-17 19:11 333 0 gusting 2 6.7
2019-Nov-17 19:06 333 1 gusting 2 6.7
2019-Nov-17 19:01 333 0 gusting 2 6.7
2019-Nov-17 18:56 353 0 gusting 2 6.7
2019-Nov-17 18:51 353 0 gusting 3 6.7
2019-Nov-17 18:46 353 1 gusting 3 6.7
2019-Nov-17 18:41 353 1 gusting 3 6.7
2019-Nov-17 18:36 353 1 gusting 3 6.7
2019-Nov-17 18:31 353 0 gusting 3 6.7
2019-Nov-17 18:26 353 0 gusting 2 6.7
2019-Nov-17 18:21 353 1 gusting 2 6.7
2019-Nov-17 18:16 353 0 gusting 1 6.7
2019-Nov-17 18:11 353 6.7
2019-Nov-17 18:06 353 6.7
2019-Nov-17 18:01 353 0 gusting 1 6.7
2019-Nov-17 17:56 353 0 gusting 1 6.7
2019-Nov-17 17:51 353 0 gusting 2 6.7
2019-Nov-17 17:46 353 0 gusting 2 6.7
2019-Nov-17 17:41 353 1 gusting 2 7.2
2019-Nov-17 17:36 353 7.2
2019-Nov-17 17:31 353 0 gusting 2 7.2
2019-Nov-17 17:26 353 0 gusting 3 7.2
2019-Nov-17 17:21 353 0 gusting 3 7.2
2019-Nov-17 17:16 353 0 gusting 3 7.2
2019-Nov-17 17:11 353 1 gusting 2 7.2
2019-Nov-17 17:06 353 0 gusting 2 7.2
2019-Nov-17 17:01 353 0 gusting 2 7.2
2019-Nov-17 16:56 353 0 gusting 2 7.2
2019-Nov-17 16:51 353 0 gusting 2 7.2
2019-Nov-17 16:46 353 0 gusting 1 7.8
2019-Nov-17 16:41 353 7.8
2019-Nov-17 16:36 353 0 gusting 3 7.8
2019-Nov-17 16:31 353 1 gusting 3 7.8
2019-Nov-17 16:26 353 1 gusting 4 7.8
2019-Nov-17 16:21 357 1 gusting 4 7.8
2019-Nov-17 16:16 312 0 gusting 3 7.8
2019-Nov-17 16:11 307 1 gusting 2 7.8
2019-Nov-17 16:06 317 0 gusting 3 7.8
2019-Nov-17 16:01 317 1 gusting 3 7.8
2019-Nov-17 15:56 313 1 gusting 3 8.3
2019-Nov-17 15:51 316 1 gusting 3 8.3
2019-Nov-17 15:46 326 0 gusting 3 7.8
2019-Nov-17 15:41 337 1 gusting 3 8.3
2019-Nov-17 15:36 338 0 gusting 1 8.3
2019-Nov-17 15:31 338 0 gusting 2 8.3
2019-Nov-17 15:26 338 0 gusting 2 8.3
2019-Nov-17 15:21 338 8.3
2019-Nov-17 15:16 338 8.3
2019-Nov-17 15:11 338 0 gusting 3 8.3
2019-Nov-17 15:06 338 0 gusting 3 8.3
2019-Nov-17 15:01 334 1 gusting 3 8.3
2019-Nov-17 14:56 8.3
2019-Nov-17 14:51 358 1 gusting 4 8.3
2019-Nov-17 14:46 354 0 gusting 3 8.3
2019-Nov-17 14:41 351 1 gusting 3 8.3
2019-Nov-17 14:36 341 1 gusting 3 8.3
2019-Nov-17 14:31 331 1 gusting 3 8.3
2019-Nov-17 14:26 300 0 gusting 4 8.3
2019-Nov-17 14:21 347 1 gusting 4 8.3
2019-Nov-17 14:16 353 0 gusting 3 7.8
2019-Nov-17 14:11 7.8
2019-Nov-17 14:06 014 1 gusting 3 8.3
2019-Nov-17 14:01 345 0 gusting 3 7.8
2019-Nov-17 13:56 334 1 gusting 3 7.8
2019-Nov-17 13:51 350 1 gusting 4 7.8
2019-Nov-17 13:46 8.3
2019-Nov-17 13:41 013 0 gusting 3 8.3
2019-Nov-17 13:36 338 0 gusting 3 7.8
2019-Nov-17 13:31 004 1 gusting 2 7.8
2019-Nov-17 13:26 337 0 gusting 2 7.8
2019-Nov-17 13:21 340 1 gusting 3 7.8
2019-Nov-17 13:16 340 0 gusting 4 8.3
2019-Nov-17 13:11 343 1 gusting 4 8.3
2019-Nov-17 13:06 336 2 gusting 3 8.3
2019-Nov-17 13:01 353 0 gusting 5 8.3
2019-Nov-17 12:56 343 1 gusting 5 8.3
2019-Nov-17 12:51 041 2 gusting 5 8.3
2019-Nov-17 12:46 034 0 gusting 4 8.3
2019-Nov-17 12:41 354 1 gusting 4 8.3
2019-Nov-17 12:36 345 1 gusting 5 8.3
2019-Nov-17 12:31 014 3 gusting 5 8.3
2019-Nov-17 12:26 008 3 gusting 8 8.3
2019-Nov-17 12:21 085 4 gusting 6 8.3
2019-Nov-17 12:16 8.3
2019-Nov-17 12:11 357 2 gusting 6 8.3
2019-Nov-17 12:06 278 2 gusting 4 8.3
2019-Nov-17 12:01 031 1 gusting 3 8.3
2019-Nov-17 11:56 025 0 gusting 3 8.3
2019-Nov-17 11:51 023 0 gusting 1 8.3
2019-Nov-17 11:46 023 7.8
2019-Nov-17 11:41 024 1 gusting 4 7.8
2019-Nov-17 11:35 340 0 gusting 4 7.8
2019-Nov-17 11:30 319 0 gusting 2 7.8
2019-Nov-17 11:25 319 0 gusting 3 7.8
2019-Nov-17 11:20 319 0 gusting 3 7.8
2019-Nov-17 11:15 303 1 gusting 2 7.8
2019-Nov-17 11:10 276 7.2
2019-Nov-17 11:05 276 0 gusting 1 7.2
2019-Nov-17 11:00 276 7.2
2019-Nov-17 10:55 276 7.2
2019-Nov-17 10:50 276 0 gusting 1 7.2
2019-Nov-17 10:45 276 7.2
2019-Nov-17 10:40 276 7.2
2019-Nov-17 10:35 276 6.7
2019-Nov-17 10:30 276 6.7
2019-Nov-17 10:25 276 6.7
2019-Nov-17 10:20 276 1 gusting 2 6.7
2019-Nov-17 10:15 276 0 gusting 2 6.7
2019-Nov-17 10:10 276 0 gusting 1 6.7
2019-Nov-17 10:05 276 6.7
2019-Nov-17 10:00 276 6.7
2019-Nov-17 09:55 276 6.7
2019-Nov-17 09:50 276 6.1
2019-Nov-17 09:45 276 6.1
2019-Nov-17 09:40 276 6.1
2019-Nov-17 09:35 276 6.1
2019-Nov-17 09:30 276 6.1
2019-Nov-17 09:25 276 6.1
2019-Nov-17 09:20 276 0 gusting 2 5.6
2019-Nov-17 09:15 276 0 gusting 2 5.6
2019-Nov-17 09:10 276 5.6
2019-Nov-17 09:05 276 0 gusting 1 5.6
2019-Nov-17 09:00 276 0 gusting 1 5.6
2019-Nov-17 08:55 276 0 gusting 1 5.0
2019-Nov-17 08:50 276 5.0
2019-Nov-17 08:45 276 5.0
2019-Nov-17 08:40 276 4.4
2019-Nov-17 08:35 276 4.4
2019-Nov-17 08:30 276 4.4
2019-Nov-17 08:25 276 4.4
2019-Nov-17 08:20 276 4.4
2019-Nov-17 08:15 276 4.4
2019-Nov-17 08:10 276 4.4
2019-Nov-17 08:05 276 4.4
2019-Nov-17 08:00 276 3.9
2019-Nov-17 07:55 276 4.4
2019-Nov-17 07:50 276 3.9
2019-Nov-17 07:45 276 3.9
2019-Nov-17 07:40 276 3.9
2019-Nov-17 07:35 276 3.9
2019-Nov-17 07:30 276 3.9
2019-Nov-17 07:25 276 3.9
2019-Nov-17 07:20 276 3.9
2019-Nov-17 07:15 276 3.9
2019-Nov-17 07:10 276 3.9
2019-Nov-17 07:05 276 3.9
2019-Nov-17 07:00 276 3.9
2019-Nov-17 06:55 276 3.9
2019-Nov-17 06:50 276 3.9
2019-Nov-17 06:45 276 3.9
2019-Nov-17 06:40 276 3.9
2019-Nov-17 06:35 276 3.9
2019-Nov-17 06:30 276 3.9
2019-Nov-17 06:25 276 3.9
2019-Nov-17 06:20 276 3.9
2019-Nov-17 06:15 276 4.4
2019-Nov-17 06:10 276 4.4
2019-Nov-17 06:05 276 4.4
2019-Nov-17 06:00 276 0 gusting 1 4.4
2019-Nov-17 05:55 276 4.4
2019-Nov-17 05:50 276 4.4
2019-Nov-17 05:45 276 4.4
2019-Nov-17 05:40 276 4.4
2019-Nov-17 05:35 276 4.4
2019-Nov-17 05:30 276 4.4
2019-Nov-17 05:25 276 5.0
2019-Nov-17 05:20 276 5.0
2019-Nov-17 05:15 276 5.0
2019-Nov-17 05:10 276 5.0
2019-Nov-17 05:05 276 5.0
2019-Nov-17 05:00 276 5.0
2019-Nov-17 04:55 276 5.0
2019-Nov-17 04:50 276 5.0
2019-Nov-17 04:45 276 5.0
2019-Nov-17 04:40 276 5.0
2019-Nov-17 04:35 276 5.0
2019-Nov-17 04:30 276 5.0
2019-Nov-17 04:25 276 5.0
2019-Nov-17 04:20 276 5.0
2019-Nov-17 04:15 276 5.0
2019-Nov-17 04:10 276 5.0
2019-Nov-17 04:05 276 5.0
2019-Nov-17 04:00 276 5.6
2019-Nov-17 03:55 276 5.6
2019-Nov-17 03:50 276 5.6
2019-Nov-17 03:45 276 0 gusting 0 5.6
2019-Nov-17 03:40 276 5.6
2019-Nov-17 03:35 276 5.6
2019-Nov-17 03:30 276 5.6
2019-Nov-17 03:25 276 5.6
2019-Nov-17 03:20 276 5.6
2019-Nov-17 03:15 276 5.6
2019-Nov-17 03:10 276 5.6
2019-Nov-17 03:05 276 5.6
2019-Nov-17 03:00 276 5.6
2019-Nov-17 02:55 276 6.1
2019-Nov-17 02:50 276 6.1
2019-Nov-17 02:45 276 6.1
2019-Nov-17 02:40 276 6.1
2019-Nov-17 02:35 276 6.1
2019-Nov-17 02:30 276 6.1
2019-Nov-17 02:25 276 6.1
2019-Nov-17 02:20 276 6.1
2019-Nov-17 02:15 276 6.7
2019-Nov-17 02:10 276 6.7
2019-Nov-17 02:05 276 6.7
2019-Nov-17 02:00 276 6.7
2019-Nov-17 01:55 276 6.7
2019-Nov-17 01:47 276 6.7
2019-Nov-17 01:41 276 6.7
2019-Nov-17 01:35 276 6.7
2019-Nov-17 01:30 276 6.7
2019-Nov-17 01:25 276 6.7
2019-Nov-17 01:20 276 6.7
2019-Nov-17 01:15 276 7.2
2019-Nov-17 01:10 276 0 gusting 2 7.2
2019-Nov-17 01:05 276 0 gusting 2 7.2
2019-Nov-17 01:00 276 0 gusting 1 7.2
2019-Nov-17 00:55 276 0 gusting 1 7.2
2019-Nov-17 00:50 276 0 gusting 2 7.2
2019-Nov-17 00:45 276 7.2
2019-Nov-17 00:40 276 7.2
2019-Nov-17 00:35 276 7.2
2019-Nov-17 00:30 276 7.2
2019-Nov-17 00:25 276 7.2
2019-Nov-17 00:20 276 7.2
2019-Nov-17 00:15 276 7.2
2019-Nov-17 00:10 276 7.2
2019-Nov-17 00:05 276 7.2
2019-Nov-17 00:00 276 7.2
2019-Nov-16 23:55 276 7.2
2019-Nov-16 23:50 276 7.2
2019-Nov-16 23:45 276 7.2
2019-Nov-16 23:40 276 7.2
2019-Nov-16 23:35 276 7.2
2019-Nov-16 23:30 276 7.2
2019-Nov-16 23:25 276 7.2
2019-Nov-16 23:20 276 0 gusting 2 7.2
2019-Nov-16 23:15 276 0 gusting 1 7.2
2019-Nov-16 23:10 276 0 gusting 1 7.2
2019-Nov-16 23:05 276 0 gusting 1 7.2
2019-Nov-16 23:00 276 7.2
2019-Nov-16 22:55 276 0 gusting 1 7.2
2019-Nov-16 22:50 276 0 gusting 0 7.2
2019-Nov-16 22:45 276 7.2
2019-Nov-16 22:40 276 7.2
2019-Nov-16 22:35 276 7.2
2019-Nov-16 22:30 276 7.2
2019-Nov-16 22:25 276 0 gusting 2 7.2
2019-Nov-16 22:20 276 7.2
2019-Nov-16 22:15 276 7.2
2019-Nov-16 22:10 276 7.2
2019-Nov-16 22:05 276 7.2
2019-Nov-16 22:00 276 7.2
2019-Nov-16 21:55 276 7.2
2019-Nov-16 21:50 276 0 7.2
2019-Nov-16 21:45 276 7.2
2019-Nov-16 21:40 276 7.2
2019-Nov-16 21:35 276 7.2
2019-Nov-16 21:30 276 0 gusting 1 7.2
2019-Nov-16 21:25 276 0 gusting 1 7.2
2019-Nov-16 21:20 276 0 gusting 1 7.2
2019-Nov-16 21:15 276 0 gusting 2 7.2
2019-Nov-16 21:10 276 0 gusting 2 7.2
2019-Nov-16 21:05 276 1 gusting 2 7.2
2019-Nov-16 21:00 276 1 gusting 2 7.2
2019-Nov-16 20:55 272 1 gusting 2 7.2
2019-Nov-16 20:50 275 1 gusting 2 7.2
2019-Nov-16 20:45 275 1 gusting 3 7.2
2019-Nov-16 20:40 275 1 gusting 2 7.2
2019-Nov-16 20:35 276 1 gusting 2 7.2
2019-Nov-16 20:30 276 0 gusting 1 7.2
2019-Nov-16 20:25 276 0 gusting 2 7.2
2019-Nov-16 20:20 276 1 gusting 2 7.2
2019-Nov-16 20:15 276 1 gusting 1 7.2
2019-Nov-16 20:10 276 7.2
2019-Nov-16 20:05 276 7.2
2019-Nov-16 20:00 276 7.2
2019-Nov-16 19:55 276 7.2
2019-Nov-16 19:50 276 0 gusting 1 7.2
2019-Nov-16 19:45 276 0 gusting 1 7.2
2019-Nov-16 19:40 276 7.2
2019-Nov-16 19:35 276 0 gusting 1 7.2
2019-Nov-16 19:30 276 0 gusting 1 7.2
2019-Nov-16 19:25 276 0 gusting 1 7.2
2019-Nov-16 19:20 276 0 gusting 1 7.8
2019-Nov-16 19:15 276 0 gusting 2 7.8
2019-Nov-16 19:10 276 0 gusting 2 7.8
2019-Nov-16 19:05 276 1 gusting 2 7.8
2019-Nov-16 19:00 276 1 gusting 2 7.8
2019-Nov-16 18:55 276 0 gusting 2 7.8
2019-Nov-16 18:50 276 1 gusting 2 7.8
2019-Nov-16 18:45 275 1 gusting 2 7.8
2019-Nov-16 18:40 278 1 gusting 2 7.8
2019-Nov-16 18:35 278 1 gusting 3 7.8
2019-Nov-16 18:30 274 1 gusting 3 7.8
2019-Nov-16 18:25 258 0 gusting 4 7.8
2019-Nov-16 18:20 213 1 gusting 4 7.8
2019-Nov-16 18:15 283 1 gusting 3 7.8
2019-Nov-16 18:10 278 1 gusting 4 7.8
2019-Nov-16 18:05 243 1 gusting 4 7.8
2019-Nov-16 18:00 266 1 gusting 2 7.8
2019-Nov-16 17:55 279 1 gusting 2 7.8
2019-Nov-16 17:49 238 0 gusting 3 7.8
2019-Nov-16 17:44 238 1 gusting 3 7.8
2019-Nov-16 17:39 272 1 gusting 3 7.8
2019-Nov-16 17:34 272 1 gusting 3 7.8
2019-Nov-16 17:29 258 1 gusting 2 7.8
2019-Nov-16 17:24 265 0 gusting 1 8.3
2019-Nov-16 17:19 265 0 gusting 1 8.3
2019-Nov-16 17:14 265 0 gusting 2 8.3
2019-Nov-16 17:09 265 0 gusting 2 8.3
2019-Nov-16 17:04 265 0 gusting 1 8.3
2019-Nov-16 16:59 265 0 gusting 1 8.3
2019-Nov-16 16:54 265 0 gusting 1 8.3
2019-Nov-16 16:49 265 8.3
2019-Nov-16 16:44 265 0 gusting 1 8.3
2019-Nov-16 16:39 265 0 gusting 1 8.3
2019-Nov-16 16:34 265 0 gusting 3 8.3
2019-Nov-16 16:29 265 0 gusting 3 8.3
2019-Nov-16 16:24 271 1 gusting 3 8.3
2019-Nov-16 16:19 286 1 gusting 3 8.3
2019-Nov-16 16:14 279 1 gusting 3 8.3
2019-Nov-16 16:09 285 0 gusting 3 8.3
2019-Nov-16 16:04 206 1 gusting 3 8.3
2019-Nov-16 15:59 282 1 gusting 3 8.9
2019-Nov-16 15:54 281 2 gusting 3 8.9
2019-Nov-16 15:49 271 1 gusting 2 8.9
2019-Nov-16 15:44 271 1 gusting 3 8.9
2019-Nov-16 15:39 243 2 gusting 2 8.9
2019-Nov-16 15:34 252 1 gusting 2 8.9
2019-Nov-16 15:29 248 0 gusting 2 8.9
2019-Nov-16 15:24 241 1 gusting 2 8.9
2019-Nov-16 15:19 231 1 gusting 3 8.9
2019-Nov-16 15:14 275 0 gusting 3 8.9
2019-Nov-16 15:09 265 0 gusting 3 8.9
2019-Nov-16 15:04 265 0 gusting 3 8.9
2019-Nov-16 14:59 265 0 gusting 3 8.9
2019-Nov-16 14:54 265 1 gusting 3 8.9
2019-Nov-16 14:49 268 1 gusting 3 8.9
2019-Nov-16 14:44 252 0 gusting 3 8.9
2019-Nov-16 14:39 252 1 gusting 3 8.9
2019-Nov-16 14:34 262 0 gusting 3 8.9
2019-Nov-16 14:29 262 1 gusting 3 8.9
2019-Nov-16 14:24 266 1 gusting 3 8.9
2019-Nov-16 14:19 283 1 gusting 3 8.9
2019-Nov-16 14:14 288 0 gusting 2 8.9
2019-Nov-16 14:09 272 0 gusting 3 8.9
2019-Nov-16 14:04 275 1 gusting 3 9.4
2019-Nov-16 13:59 278 1 gusting 2 9.4
2019-Nov-16 13:54 288 0 gusting 3 9.4
2019-Nov-16 13:49 288 0 gusting 4 9.4
2019-Nov-16 13:44 300 0 gusting 4 9.4
2019-Nov-16 13:39 334 0 gusting 3 9.4
2019-Nov-16 13:34 299 1 gusting 3 9.4
2019-Nov-16 13:29 293 1 gusting 4 10.0
2019-Nov-16 13:24 299 1 gusting 4 10.0
2019-Nov-16 13:19 274 1 gusting 5 10.0
2019-Nov-16 13:14 265 3 gusting 4 10.0
2019-Nov-16 13:09 282 0 gusting 5 10.0
2019-Nov-16 13:04 227 3 gusting 5 10.0
2019-Nov-16 12:59 272 2 gusting 4 9.4
2019-Nov-16 12:54 302 1 gusting 5 9.4
2019-Nov-16 12:49 271 1 gusting 5 9.4
2019-Nov-16 12:44 268 2 gusting 5 9.4
2019-Nov-16 12:39 275 2 gusting 4 9.4
2019-Nov-16 12:34 286 0 gusting 2 9.4
2019-Nov-16 12:29 278 1 gusting 3 9.4
2019-Nov-16 12:24 269 1 gusting 5 9.4
2019-Nov-16 12:19 274 2 gusting 5 9.4
2019-Nov-16 12:14 295 1 gusting 3 9.4
2019-Nov-16 12:09 296 1 gusting 3 9.4
2019-Nov-16 12:04 293 0 gusting 4 9.4
2019-Nov-16 11:59 247 1 gusting 4 9.4
2019-Nov-16 11:54 290 1 gusting 4 9.4
2019-Nov-16 11:49 275 1 gusting 4 9.4
2019-Nov-16 11:44 281 2 gusting 4 8.9
2019-Nov-16 11:39 230 1 gusting 3 8.9
2019-Nov-16 11:34 276 0 gusting 3 8.9
2019-Nov-16 11:29 276 0 gusting 3 8.9
2019-Nov-16 11:24 276 1 gusting 3 8.9
2019-Nov-16 11:19 275 1 gusting 3 8.9
2019-Nov-16 11:14 275 1 gusting 3 8.9
2019-Nov-16 11:09 244 1 gusting 2 8.9
2019-Nov-16 11:04 276 0 gusting 2 8.9
2019-Nov-16 10:59 276 0 gusting 2 8.9
2019-Nov-16 10:54 276 1 gusting 3 8.9
2019-Nov-16 10:49 265 1 gusting 3 8.3
2019-Nov-16 10:44 288 1 gusting 3 8.3
2019-Nov-16 10:39 331 0 gusting 3 8.3
2019-Nov-16 10:34 257 2 gusting 4 8.3
2019-Nov-16 10:29 235 2 gusting 4 8.3
2019-Nov-16 10:24 290 1 gusting 3 8.3
2019-Nov-16 10:19 247 1 gusting 3 8.3
2019-Nov-16 10:14 247 0 gusting 4 8.3
2019-Nov-16 10:09 283 0 gusting 4 8.3
2019-Nov-16 10:04 282 7.8
2019-Nov-16 09:59 282 0 gusting 3 7.8
2019-Nov-16 09:54 274 2 gusting 3 7.8
2019-Nov-16 09:49 259 0 gusting 3 7.8
2019-Nov-16 09:44 257 1 gusting 2 7.8
2019-Nov-16 09:39 255 0 gusting 2 7.8
2019-Nov-16 09:34 234 1 gusting 2 7.8
2019-Nov-16 09:29 292 0 gusting 3 7.8
2019-Nov-16 09:24 271 1 gusting 3 7.8
2019-Nov-16 09:19 264 0 gusting 2 7.8
2019-Nov-16 09:14 324 1 gusting 2 7.8
2019-Nov-16 09:09 326 0 gusting 2 7.2
2019-Nov-16 09:04 326 0 gusting 2 6.7
2019-Nov-16 08:59 326 0 gusting 1 6.7
2019-Nov-16 08:54 326 6.7
2019-Nov-16 08:49 326 0 gusting 1 6.7
2019-Nov-16 08:44 326 0 gusting 1 6.7
2019-Nov-16 08:39 326 6.7
2019-Nov-16 08:34 326 6.1
2019-Nov-16 08:29 326 6.1
2019-Nov-16 08:24 326 6.1
2019-Nov-16 08:19 326 6.1
2019-Nov-16 08:14 326 6.1
2019-Nov-16 08:09 326 0 gusting 1 6.1
2019-Nov-16 08:04 326 6.1
2019-Nov-16 07:59 326 6.1
2019-Nov-16 07:54 326 0 gusting 2 6.1
2019-Nov-16 07:49 326 1 gusting 2 6.1
2019-Nov-16 07:44 326 0 gusting 3 6.1
2019-Nov-16 07:39 326 0 gusting 3 6.1
2019-Nov-16 07:34 323 0 gusting 3 6.1
2019-Nov-16 07:29 314 6.1
2019-Nov-16 07:24 314 1 gusting 2 6.1
2019-Nov-16 07:19 314 0 gusting 2 6.1
2019-Nov-16 07:14 314 0 gusting 3 6.1
2019-Nov-16 07:09 314 0 gusting 3 6.1
2019-Nov-16 07:04 313 0 gusting 2 6.1
2019-Nov-16 06:59 313 0 gusting 2 6.1
2019-Nov-16 06:54 305 6.7
2019-Nov-16 06:49 303 0 gusting 3 6.7
2019-Nov-16 06:44 272 1 gusting 3 6.7
2019-Nov-16 06:39 345 0 gusting 5 6.7
2019-Nov-16 06:34 327 2 gusting 5 6.7
2019-Nov-16 06:29 337 1 gusting 4 6.7
2019-Nov-16 06:24 314 1 gusting 4 6.7
2019-Nov-16 06:19 327 1 gusting 4 6.7
2019-Nov-16 06:14 285 2 gusting 4 6.7
2019-Nov-16 06:09 305 2 gusting 5 6.7
2019-Nov-16 06:04 303 2 gusting 5 6.7
2019-Nov-16 05:59 295 1 gusting 6 6.7
2019-Nov-16 05:54 309 3 gusting 6 6.7
2019-Nov-16 05:49 292 1 gusting 8 6.7
2019-Nov-16 05:44 6.7
2019-Nov-16 05:39 321 2 gusting 5 6.7
2019-Nov-16 05:34 317 3 gusting 5 6.7
2019-Nov-16 05:29 331 3 gusting 5 6.7
2019-Nov-16 05:24 6.7
2019-Nov-16 05:19 265 2 gusting 6 6.7
2019-Nov-16 05:14 288 2 gusting 6 6.7
2019-Nov-16 05:09 336 2 gusting 7 6.7
2019-Nov-16 05:04 331 2 gusting 7 6.7
2019-Nov-16 04:59 330 2 gusting 5 6.7
2019-Nov-16 04:54 334 1 gusting 4 6.7
2019-Nov-16 04:49 324 1 gusting 5 6.7
2019-Nov-16 04:44 314 2 gusting 5 6.7
2019-Nov-16 04:39 334 1 gusting 5 6.7
2019-Nov-16 04:34 320 2 gusting 6 6.7
2019-Nov-16 04:29 327 2 gusting 9 6.7
2019-Nov-16 04:24 336 3 gusting 9 6.7
2019-Nov-16 04:19 353 3 gusting 9 6.7
2019-Nov-16 04:14 316 4 gusting 9 6.7
2019-Nov-16 04:09 6.7
2019-Nov-16 04:04 351 1 gusting 6 6.7
2019-Nov-16 03:59 286 1 gusting 6 6.7
2019-Nov-16 03:54 305 1 gusting 5 6.7
2019-Nov-16 03:49 337 1 gusting 6 6.7
2019-Nov-16 03:44 317 2 gusting 6 6.7
2019-Nov-16 03:39 326 2 gusting 5 6.7
2019-Nov-16 03:34 312 1 gusting 6 6.7
2019-Nov-16 03:29 341 2 gusting 6 6.7
2019-Nov-16 03:24 323 1 gusting 4 6.7
2019-Nov-16 03:19 302 2 gusting 5 6.7
2019-Nov-16 03:14 329 3 gusting 5 6.7
2019-Nov-16 03:09 320 1 gusting 5 6.7
2019-Nov-16 03:04 306 1 gusting 7 6.7
2019-Nov-16 02:59 354 3 gusting 7 6.7
2019-Nov-16 02:54 321 2 gusting 6 6.7
2019-Nov-16 02:49 327 1 gusting 6 6.7
2019-Nov-16 02:44 331 3 gusting 6 6.7
2019-Nov-16 02:39 326 2 gusting 6 6.7
2019-Nov-16 02:34 348 2 gusting 6 6.7
2019-Nov-16 02:29 314 1 gusting 6 6.7
2019-Nov-16 02:24 329 3 gusting 6 6.7
2019-Nov-16 02:19 340 1 gusting 5 6.7
2019-Nov-16 02:14 298 1 gusting 7 6.7
2019-Nov-16 02:09 330 2 gusting 7 6.7
2019-Nov-16 02:04 316 2 gusting 6 6.7
2019-Nov-16 01:59 290 2 gusting 4 6.7
2019-Nov-16 01:54 293 3 gusting 6 6.7
2019-Nov-16 01:49 336 3 gusting 8 6.7
2019-Nov-16 01:44 290 2 gusting 8 6.7
2019-Nov-16 01:39 340 3 gusting 7 6.7
2019-Nov-16 01:34 323 3 gusting 9 6.7
2019-Nov-16 01:29 285 1 gusting 9 6.7
2019-Nov-16 01:24 289 2 gusting 6 6.7
2019-Nov-16 01:19 299 3 gusting 6 6.7
2019-Nov-16 01:14 324 2 gusting 8 6.7
2019-Nov-16 01:09 299 1 gusting 7 6.7
2019-Nov-16 01:04 320 3 gusting 6 6.7
2019-Nov-16 00:59 350 1 gusting 5 6.7
2019-Nov-16 00:54 299 1 gusting 5 6.7
2019-Nov-16 00:49 340 2 gusting 5 6.7
2019-Nov-16 00:44 321 1 gusting 5 6.7
2019-Nov-16 00:39 344 3 gusting 6 6.7
2019-Nov-16 00:34 278 2 gusting 6 6.7
2019-Nov-16 00:29 310 2 gusting 7 6.7
2019-Nov-16 00:24 344 1 gusting 7 6.7
2019-Nov-16 00:19 355 2 gusting 8 6.7
2019-Nov-16 00:14 310 3 gusting 8 6.7
2019-Nov-16 00:09 344 1 gusting 7 6.7
2019-Nov-16 00:04 295 3 gusting 7 6.7
2019-Nov-15 23:59 340 3 gusting 5 6.1
2019-Nov-15 23:54 293 2 gusting 4 6.1
2019-Nov-15 23:49 316 1 gusting 4 6.1
2019-Nov-15 23:44 341 2 gusting 5 6.1
2019-Nov-15 23:39 334 2 gusting 6 6.1
2019-Nov-15 23:34 326 2 gusting 6 6.1
2019-Nov-15 23:29 340 1 gusting 5 6.1
2019-Nov-15 23:24 326 2 gusting 4 6.1
2019-Nov-15 23:19 337 0 gusting 6 6.1
2019-Nov-15 23:14 6.1
2019-Nov-15 23:09 333 1 gusting 6 6.1
2019-Nov-15 23:04 302 1 gusting 6 6.1